Location: Unnamed
(45.7828°N, 108.5339°W)
Time: 20:05:27
(UTC-06:00)

ISS - Pass Details

Date: 27 June 2021
Orbit: 419 x 421 km, 51.6° (Epoch: 02 August)

Event Time Altitude Azimuth Distance (km) Brightness Sun altitude
Exits shadow 04:00:18 - 165° (SSE) 1,687 -1.0 -11.6°
Reaches altitude 10° 04:01:24 10° 149° (SSE) 1,494 -1.2 -11.5°
Maximum altitude 04:02:25 11° 132° (SE) 1,431 -1.1 -11.4°
Drops below altitude 10° 04:03:26 10° 114° (ESE) 1,497 -0.8 -11.3°
Sets 04:06:50 0° 77° (ENE) 2,367 1.0 -10.9°
